Riohacha, Colombia

7:13 AM -05 on November 22, 2017 (GMT -0500)
Almirante Padilla

Weather History for SKRH - May, 2014

Change the Weather History Date:

Thursday, May 1, 2014

  Actual Average Record
Temperature  
Mean Temperature 85 °F -  
Max Temperature 93 °F - - ()
Min Temperature 77 °F - - ()
Cooling Degree Days 20    
Growing Degree Days 35 (Base 50)    
Moisture  
Dew Point 72 °F    
Average Humidity 64    
Maximum Humidity 79    
Minimum Humidity 44    
Precipitation  
Precipitation 0.00 in - - ()
Sea Level Pressure  
Sea Level Pressure 29.83 in    
Wind  
Wind Speed 9 mph ()    
Max Wind Speed 17 mph    
Max Gust Speed -    
Visibility 8.0 miles    
Events      
T = Trace of Precipitation, MM = Missing Value Source: Averaged Metar Reports

Daily Weather History Graph

Daily Weather History Graph

Search for Another Location

Airport or City:

Trip Planner

Search our weather history database for the weather conditions in past years. The results will help you decide how hot, cold, wet, or windy it might be!

Date:

Astronomy

May. 01, 2014 Rise Set
Actual Time 5:32 AM -05 6:05 PM -05
Civil Twilight 5:10 AM -05 6:27 PM -05
Nautical Twilight 4:45 AM -05 6:52 PM -05
Astronomical Twilight 4:19 AM -05 7:18 PM -05
Moon 7:27 AM -05 (5/1) 8:24 PM -05 (5/1)
Length of Visible Light 13h 16m
Length of Day
12h 32m
Waxing Crescent, 7% of the Moon is Illuminated
May 1
Waxing Crescent
May 6
First Quarter
May 14
Full
May 21
Last Quarter
May 28
New

Hourly Weather History & Observations

Time (-05) Temp. Heat Index Dew Point Humidity Pressure Visibility Wind Dir Wind Speed Gust Speed Precip Events Conditions
6:00 AM 77.0 °F - 68.0 °F 74% 29.86 in - Calm Calm - N/A   Clear
7:00 AM 80 °F - 70 °F 64% 29.90 in 12 mi ENE 8.9 mph - -  
7:00 AM 80.6 °F 83.9 °F 69.8 °F 70% 29.88 in - ENE 9.2 mph - N/A   Clear
8:00 AM 84.2 °F 89.6 °F 71.6 °F 66% 29.90 in - East 16.1 mph - N/A   Clear
9:00 AM 86.0 °F 90.4 °F 69.8 °F 58% 29.90 in 6.2 mi East 13.8 mph - N/A   Unknown
10:00 AM 88 °F - 69 °F 44% 29.92 in 12 mi East 8.9 mph - -   Mostly Cloudy
10:00 AM 87.8 °F 92.6 °F 69.8 °F 55% 29.88 in 6.2 mi East 13.8 mph - N/A   Mostly Cloudy
11:00 AM 89.6 °F 94.7 °F 69.8 °F 52% 29.88 in 6.2 mi East 13.8 mph - N/A   Mostly Cloudy
12:00 PM 93.2 °F 98.8 °F 69.8 °F 46% 29.85 in 6.2 mi ESE 16.1 mph - N/A   Mostly Cloudy
1:00 PM 91 °F - 72 °F 46% 29.84 in 12 mi NNE 13.4 mph - -   Mostly Cloudy
1:00 PM 91.4 °F 98.4 °F 71.6 °F 52% 29.83 in 6.2 mi NNE 13.8 mph - N/A   Mostly Cloudy
2:00 PM 86.0 °F 95.1 °F 75.2 °F 70% 29.79 in 6.2 mi NNE 11.5 mph - N/A   Mostly Cloudy
3:00 PM 86.0 °F 95.1 °F 75.2 °F 70% 29.77 in 6.2 mi NNE 13.8 mph - N/A   Scattered Clouds
4:00 PM 84 °F - 75 °F 68% 29.75 in 12 mi NE 15.7 mph - -   Scattered Clouds
4:00 PM 84.2 °F 92.3 °F 75.2 °F 74% 29.75 in 6.2 mi NE 16.1 mph - N/A   Partly Cloudy
5:00 PM 84.2 °F 92.3 °F 75.2 °F 74% 29.75 in 6.2 mi NE 17.3 mph - N/A   Partly Cloudy
6:00 PM 82.4 °F 89.5 °F 75.2 °F 79% 29.77 in 6.2 mi NNE 13.8 mph - N/A   Scattered Clouds
7:00 PM 83 °F - 75 °F 71% 29.81 in 12 mi NE 6.7 mph - -   Partly Cloudy
7:00 PM 82.4 °F 89.5 °F 75.2 °F 79% 29.79 in 6.2 mi NE 6.9 mph - N/A   Scattered Clouds